View from above orbital plane
|
View from above satellite
|
Ground track
|
The orbit data is extracted from the following two-line orbital elements,
1 23190U 94045B 21058.65076412 -.00000052 00000-0 -31791-4 0 9998
2 23190 74.0290 22.9876 0018287 51.8706 308.4058 13.74097841332602
Epoch (UTC): | 27 February 2021 15:37:06 |
Eccentricity: | 0.0018287 |
inclination: | 74.0290° |
perigee height: | 971 km |
apogee height: | 998 km |
right ascension of ascending node: | 22.9876° |
argument of perigee: | 51.8706° |
revolutions per day: | 13.74097841 |
mean anomaly at epoch: | 308.4058° |
orbit number at epoch: | 33260 |
The dashed part of the orbit path shows where the satellite is in the earth's shadow,
|
|